Home > Weather > Cardiff > Past weeks

Flag for United Kingdom Weather for the Past 2 Weeks in Cardiff, Wales, United Kingdom

Now
66 °F

Mild.


Feels Like: 66 °F
Forecast: 50 / 70 °F
Wind: 6 mph from East

Location: Wales Airport

Current Time: May 6, 2016 at 4:18:56 PM

Latest Report: May 6, 2016 at 3:50 PM


Visibility: N/A

Pressure: 29.77 "Hg

Humidity: 46%

Dew Point: 45 °F

Location of CardiffLocation

Historic Weather in Cardiff — Graph

°F

Cardiff Temperature Yesterday

Maximum temperature yesterday: 66 °F (at 1:50 PM)
Minimum temperature yesterday: 41 °F (at 4:50 AM)
Average temperature yesterday: 54 °F

High & Low Weather Summary for the Past Weeks

 TemperatureHumidityPressure
High66 °F (May 5, 1:50 PM)100% (Apr 22, 10:20 PM)30.36 "Hg (Apr 22, 10:20 PM)
Low34 °F (Apr 27, 1:20 AM)36% (May 5, 7:50 PM)29.77 "Hg (May 6, 2:50 PM)
Average48 °F73%30.08 "Hg
* Reported Apr 21 3:20 PM — May 6 3:20 PM, Cardiff, Weather by CustomWeather, © 2016

Note: Actual official high and low records may vary slightly from our data, if they occured in-between our weather recording intervals... More about our weather records

Advertising

Cardiff Weather History for the Previous 24 Hours

Scroll right to see more
 ConditionsComfort  
Time TempWeatherWind HumidityBarometerVisibility
3:20 PM
Fri, May 6
66 °FMild.7 mph43%29.77 "HgN/A
2:50 PM66 °FMild.8 mph46%29.77 "HgN/A
2:20 PM66 °FMild.9 mph46%29.80 "HgN/A
1:50 PM64 °FMild.9 mph49%29.80 "HgN/A
1:20 PM64 °FMild.9 mph46%29.80 "HgN/A
12:50 PM64 °FMild.10 mph46%29.80 "HgN/A
12:20 PM63 °FMild.9 mph49%29.83 "HgN/A
11:50 AM61 °FRefreshingly cool.9 mph52%29.83 "HgN/A
11:20 AM61 °FRefreshingly cool.10 mph48%29.83 "HgN/A
10:50 AM61 °FRefreshingly cool.10 mph48%29.83 "HgN/A
10:20 AM59 °FRefreshingly cool.13 mph51%29.86 "HgN/A
9:50 AM57 °FRefreshingly cool.10 mph51%29.86 "HgN/A
9:20 AM55 °FRefreshingly cool.10 mph55%29.86 "HgN/A
8:50 AM55 °FRefreshingly cool.10 mph55%29.86 "HgN/A
8:20 AM54 °FCool.12 mph58%29.86 "HgN/A
7:50 AM52 °FCool.10 mph62%29.86 "HgN/A
7:20 AM52 °FCool.12 mph62%29.86 "HgN/A
6:50 AM50 °FCool.9 mph62%29.86 "HgN/A
6:20 AM50 °FCool.9 mph62%29.89 "HgN/A
5:50 AM50 °FCool.9 mph62%29.89 "HgN/A
5:20 AM50 °FCool.9 mph62%29.89 "HgN/A
4:50 AM50 °FCool.9 mph62%29.89 "HgN/A
4:20 AM50 °FCool.10 mph62%29.89 "HgN/A
3:50 AM52 °FCool.7 mph58%29.92 "HgN/A
3:20 AM52 °FCool.6 mph58%29.92 "HgN/A
2:50 AM50 °FCool.6 mph62%29.92 "HgN/A
2:20 AM50 °FCool.7 mph62%29.92 "HgN/A
1:50 AM48 °FCool.5 mph71%29.95 "HgN/A
1:20 AM48 °FCool.3 mph71%29.95 "HgN/A
12:50 AM48 °FCool.5 mph71%29.98 "HgN/A
12:20 AM48 °FCool.2 mph71%29.98 "HgN/A
11:50 PM
Thu, May 5
50 °FCool.2 mph67%29.98 "HgN/A
11:20 PM52 °FCool.3 mph62%29.98 "HgN/A
10:50 PM55 °FRefreshingly cool.2 mph51%29.98 "HgN/A
10:20 PM55 °FRefreshingly cool.1 mph51%30.01 "HgN/A
9:50 PM54 °FCool.5 mph58%30.01 "HgN/A
9:20 PM55 °FRefreshingly cool.6 mph55%30.01 "HgN/A
8:50 PM54 °FCool.5 mph58%30.01 "HgN/A
8:20 PM57 °FRefreshingly cool.6 mph48%29.98 "HgN/A
7:50 PM61 °FRefreshingly cool.7 mph36%29.98 "HgN/A
7:20 PM63 °FMild.7 mph39%29.98 "HgN/A
6:50 PM61 °FRefreshingly cool.6 mph45%29.98 "HgN/A
6:20 PM63 °FMild.6 mph42%29.98 "HgN/A
5:50 PM64 °FMild.7 mph37%30.01 "HgN/A
5:20 PM64 °FMild.8 mph37%30.01 "HgN/A
4:50 PM64 °FMild.10 mph37%30.01 "HgN/A
4:20 PM64 °FMild.10 mph43%30.01 "HgN/A
Weather by CustomWeather, © 2016

See weather overviewHow to use our weather pages